Stations météo

Publicité
Rodez, France (7552): Température de l'air & dewpoint: 18.05.2017 11:00:00 - 24.05.2017 11:00:00 (CEST)Rodez, France (7552): Température de l'air 5cm: 18.05.2017 11:00:00 - 24.05.2017 11:00:00 (CEST)Rodez, France (7552): Vitesse du vent & gusts: 18.05.2017 11:00:00 - 24.05.2017 11:00:00 (CEST)Rodez, France (7552): Direction du vent: 18.05.2017 11:00:00 - 24.05.2017 11:00:00 (CEST)Rodez, France (7552): reduced air pressure: 18.05.2017 11:00:00 - 24.05.2017 11:00:00 (CEST)Rodez, France (7552): visibility: 18.05.2017 11:00:00 - 24.05.2017 11:00:00 (CEST)Rodez, France (7552): Ensoleillement: 18.05.2017 11:00:00 - 24.05.2017 11:00:00 (CEST)Rodez, France (7552): Quantités de précipitations: 18.05.2017 11:00:00 - 24.05.2017 11:00:00 (CEST)
Date & Time tt [°C] td [°C] tt 5cm [°C] ff [km/h] ff [knt] fx [km/h] fx [knt] dd ppp [hPa] vv [km] sd [min] rr [mm]
24.05.2017 11:00:00 19,9 13,8 28,1 11 6 21 11 NNE 1021,0 25 60 0,0
24.05.2017 10:00:00 15,6 12,7 16,8 3 1 8 5 N 1022,3 30 60 0,0
24.05.2017 09:00:00 13,1 12,8 14,1 3 2 9 5 SE 1023,2 5 21 0,0
24.05.2017 08:00:00 12,1 11,9 12,6 3 2 10 5 SSE 1023,3 0,3 0 0,0
24.05.2017 07:00:00 12,0 11,8 12,1 4 2 10 5 ENE 1023,3 0,2 0 0,2
24.05.2017 06:00:00 11,9 11,6 12,2 4 2 6 4 E 1023,3 0,2 0 0,0
24.05.2017 05:00:00 12,2 11,9 12,5 4 2 6 3 SSE 1023,3 0,2 0 0,0
24.05.2017 04:00:00 12,5 12,2 12,5 3 1 5 3 N 1023,6 0,2 0 0,0
24.05.2017 03:00:00 12,4 12,2 12,2 2 1 8 5 SE 1023,7 0,2 0 0,0
24.05.2017 02:00:00 12,4 12,2 9,2 5 3 9 5 S 1023,8 0,2 0 0,0
24.05.2017 01:00:00 11,4 11,1 7,7 5 3 9 5 WSW 1024,4 2,3 0 0,0
24.05.2017 00:00:00 11,3 10,7 7,8 5 3 6 3 SW 1024,4 4,0 0 0,0
23.05.2017 23:00:00 11,9 11,3 9,7 4 2 10 6 W 1024,3 8 0 0,0
23.05.2017 22:00:00 13,6 12,3 13,3 8 5 16 9 WNW 1023,6 15 0 0,0
23.05.2017 21:00:00 14,6 12,8 15,0 13 7 21 12 W 1023,1 19 0 0,0
23.05.2017 20:00:00 15,2 13,0 16,3 16 8 22 12 WNW 1022,6 25 0 0,0
23.05.2017 19:00:00 15,8 13,1 17,8 16 9 26 14 W 1022,3 27 0 0,0
23.05.2017 18:00:00 16,3 13,4 19,3 17 9 27 14 W 1022,3 20 4 0,0
23.05.2017 17:00:00 17,2 13,9 21,3 17 9 24 13 W 1022,2 20 20 0,0
23.05.2017 16:00:00 17,0 13,7 21,4 18 10 26 14 W 1022,4 19 30 0,0
23.05.2017 15:00:00 16,5 13,8 20,5 15 8 23 12 NW 1022,9 20 0 0,0
23.05.2017 14:00:00 16,0 13,5 18,4 10 5 18 10 NW 1023,3 31 0 0,0
23.05.2017 13:00:00 15,3 13,5 16,7 12 7 17 9 NW 1023,6 36 0 0,0
23.05.2017 12:00:00 14,2 13,4 15,2 10 5 17 9 NW 1023,7 16 0 0,0
23.05.2017 11:00:00 13,8 13,2 14,3 12 6 23 12 NW 1023,7 17 0 0,0
23.05.2017 10:00:00 13,5 13,0 14,3 16 9 22 12 WNW 1023,7 4,6 0 0,0
23.05.2017 09:00:00 14,1 13,6 14,4 12 6 16 9 NW 1022,9 3,3 0 0,2
23.05.2017 08:00:00 14,2 13,7 14,3 9 5 16 9 WNW 1022,1 2,5 0 0,0
23.05.2017 07:00:00 14,3 13,8 14,3 11 6 18 10 W 1021,6 2,4 0 0,0
23.05.2017 06:00:00 14,5 13,7 14,5 11 6 19 10 WNW 1021,0 11 0 0,0
23.05.2017 05:00:00 14,8 13,8 14,6 12 6 19 11 WNW 1020,5 19 0 0,0
23.05.2017 04:00:00 15,1 14,0 14,2 14 8 19 11 WNW 1020,3 25 0 0,0
23.05.2017 03:00:00 14,7 13,7 13,5 7 4 15 8 W 1020,4 31 0 0,0
23.05.2017 02:00:00 15,2 13,6 13,0 5 3 15 8 NW 1020,3 41 0 0,0
23.05.2017 01:00:00 16,2 13,9 15,8 16 9 32 17 WSW 1020,1 29 0 0,0
23.05.2017 00:00:00 17,1 13,8 14,1 21 11 30 16 WSW 1019,6 43 0 0,0
22.05.2017 23:00:00 17,2 12,9 14,1 8 4 12 7 WSW 1018,9 60 0 0,0
22.05.2017 22:00:00 18,0 13,3 14,9 7 4 9 5 WSW 1018,1 60 0 0,0
22.05.2017 21:00:00 19,3 13,7 17,4 6 3 13 7 WSW 1017,1 60 20 0,0
22.05.2017 20:00:00 20,8 13,7 - 11 6 15 8 W 1016,3 55 - -
22.05.2017 19:00:00 23,0 11,4 25,8 9 5 16 9 S 1015,3 60 56 0,0
22.05.2017 18:00:00 23,5 12,2 28,7 9 5 19 10 S 1015,3 54 55 0,0
22.05.2017 17:00:00 23,7 11,4 32,0 9 5 20 11 SSW 1015,4 60 60 0,0
22.05.2017 16:00:00 23,7 10,4 33,9 8 5 21 11 S 1015,5 41 56 0,0
22.05.2017 15:00:00 23,4 10,8 33,6 13 7 22 12 SSE 1015,5 60 58 0,0
22.05.2017 14:00:00 22,3 10,4 28,7 12 7 26 14 SE 1015,8 60 53 0,0
22.05.2017 13:00:00 20,9 8,2 27,2 16 9 27 15 SE 1016,6 60 37 0,0
22.05.2017 12:00:00 18,7 6,2 19,8 12 6 19 10 ESE 1017,3 60 4 0,0
22.05.2017 11:00:00 16,6 6,4 16,6 4 2 14 8 NNE 1017,8 60 0 0,0
22.05.2017 10:00:00 16,2 5,8 - 8 4 31 17 SW 1017,1 60 - 0,0
22.05.2017 09:00:00 15,7 1,4 15,0 22 12 34 18 SSE 1015,9 50 0 0,0
22.05.2017 08:00:00 15,6 3,4 13,8 22 12 29 16 ESE 1016,0 60 0 0,0
22.05.2017 07:00:00 15,0 2,2 13,0 16 9 27 15 SE 1016,0 60 0 0,0
22.05.2017 06:00:00 14,8 -0,5 12,6 15 8 25 13 ESE 1015,3 60 0 0,0
22.05.2017 05:00:00 14,6 -3,7 11,8 15 8 24 13 ESE 1015,3 60 0 0,0
22.05.2017 04:00:00 14,5 -2,0 11,5 13 7 29 15 E 1015,6 60 0 0,0
22.05.2017 03:00:00 15,1 -2,8 10,7 19 10 30 16 ESE 1015,9 60 0 0,0
22.05.2017 02:00:00 13,2 4,6 10,5 15 8 20 11 E 1016,8 60 0 0,0
22.05.2017 01:00:00 15,5 3,9 11,4 12 6 26 14 ESE 1017,0 60 0 0,0
22.05.2017 00:00:00 16,0 5,3 12,7 16 9 29 16 ESE 1017,0 60 0 0,0
21.05.2017 23:00:00 15,6 6,8 11,3 14 8 27 15 SE 1017,6 60 0 0,0
21.05.2017 22:00:00 16,0 6,4 10,5 13 7 18 10 SSE 1017,5 60 0 0,0
21.05.2017 21:00:00 17,6 6,5 12,3 11 6 14 8 SSE 1017,1 60 45 0,0
21.05.2017 20:00:00 20,9 6,8 19,9 10 6 16 9 SSE 1016,4 60 60 0,0
21.05.2017 19:00:00 22,6 7,2 27,3 3 2 10 5 E 1016,0 60 60 0,0
21.05.2017 18:00:00 23,1 8,4 31,4 3 2 13 7 ENE 1016,5 19 60 0,0
21.05.2017 17:00:00 22,4 5,8 34,5 5 3 17 9 NE 1017,3 59 60 0,0
21.05.2017 16:00:00 21,9 6,9 35,4 4 2 14 7 ENE 1018,1 60 60 0,0
21.05.2017 15:00:00 20,8 7,1 34,3 4 2 14 8 N 1018,7 60 60 0,0
21.05.2017 14:00:00 19,7 8,4 33,6 5 3 23 12 ESE 1019,6 60 60 0,0
21.05.2017 13:00:00 18,0 7,7 31,7 6 4 18 10 NE 1020,6 60 60 0,0
21.05.2017 12:00:00 16,1 8,1 26,4 5 3 13 7 ENE 1021,5 19 60 0,0
21.05.2017 11:00:00 14,1 7,2 21,0 3 2 12 6 NW 1022,7 55 60 0,0
21.05.2017 10:00:00 10,5 8,1 11,4 6 3 11 6 ENE 1023,6 51 58 0,0
21.05.2017 09:00:00 7,4 7,4 6,6 5 3 8 5 E 1024,5 0,4 30 0,0
21.05.2017 08:00:00 5,4 5,4 5,2 5 3 7 4 E 1025,1 0,7 9 0,0
21.05.2017 07:00:00 4,7 4,7 1,8 4 2 8 5 E 1025,5 0,2 7 0,0
21.05.2017 06:00:00 3,7 3,7 2,5 0 0 4 2 N 1025,9 0,9 0 0,0
21.05.2017 05:00:00 5,5 5,5 0,9 3 2 6 3 ESE 1025,5 0,5 0 0,0
21.05.2017 04:00:00 3,9 3,9 0,5 3 1 3 2 S 1026,3 0,6 0 0,0
21.05.2017 03:00:00 5,0 5,0 0,5 0 0 5 3 N 1026,4 0,2 0 0,0
21.05.2017 02:00:00 4,6 4,2 0,9 5 3 6 4 WSW 1027,2 15 0 0,0
21.05.2017 01:00:00 6,6 5,5 1,8 2 1 6 4 NW 1027,0 32 0 0,0
21.05.2017 00:00:00 7,8 7,7 2,3 7 4 8 4 WNW 1026,8 52 0 0,0
20.05.2017 23:00:00 7,2 6,6 4,5 3 1 8 4 WSW 1027,0 38 0 0,0
20.05.2017 22:00:00 9,8 8,1 7,0 0 0 6 4 N 1026,1 20 0 0,0
20.05.2017 21:00:00 11,0 8,6 8,2 5 3 11 6 WNW 1025,7 60 31 0,0
20.05.2017 20:00:00 11,9 9,5 10,2 10 6 24 13 WNW 1025,0 60 6 0,0
20.05.2017 19:00:00 10,6 8,9 10,3 18 10 29 16 WNW 1025,5 30 0 0,4
20.05.2017 18:00:00 13,1 8,0 15,2 11 6 23 12 NNW 1024,6 56 11 0,0
20.05.2017 17:00:00 13,2 7,8 15,1 19 10 29 15 W 1024,4 60 2 0,0
20.05.2017 16:00:00 14,9 7,9 21,0 14 8 25 13 W 1023,6 60 39 0,0
20.05.2017 15:00:00 14,4 6,7 15,5 11 6 23 12 W 1023,8 53 27 0,0
20.05.2017 14:00:00 12,3 8,0 14,7 12 7 26 14 W 1024,4 41 32 0,0
20.05.2017 13:00:00 11,5 6,8 15,2 5 3 13 7 W 1024,6 19 6 0,0
20.05.2017 12:00:00 11,0 6,3 11,5 8 4 13 7 WSW 1024,7 60 14 0,0
20.05.2017 11:00:00 9,5 6,4 11,5 6 4 16 9 NW 1024,8 60 7 0,0
20.05.2017 10:00:00 9,5 6,0 11,0 6 4 15 8 WNW 1024,5 58 18 0,0
20.05.2017 09:00:00 9,1 6,5 10,5 9 5 14 8 NNW 1024,2 47 42 0,0
20.05.2017 08:00:00 8,1 6,4 7,6 9 5 16 9 NW 1024,0 42 44 0,0
20.05.2017 07:00:00 7,4 7,1 6,5 8 4 14 8 W 1023,7 34 0 0,0
20.05.2017 06:00:00 7,0 6,6 6,8 11 6 22 12 WNW 1023,3 35 0 0,0
20.05.2017 05:00:00 7,5 7,1 7,0 10 5 21 11 W 1022,9 32 0 0,0
20.05.2017 04:00:00 7,7 7,3 7,5 11 6 20 11 W 1022,9 20 0 0,0
20.05.2017 03:00:00 7,7 7,1 7,4 9 5 20 11 W 1023,0 20 0 0,0
20.05.2017 02:00:00 7,8 7,0 7,5 9 5 16 8 W 1023,0 59 0 0,0
20.05.2017 01:00:00 7,6 6,8 6,9 10 5 22 12 WSW 1023,3 60 0 0,0
20.05.2017 00:00:00 7,4 6,7 6,3 14 8 19 11 W 1023,4 60 0 0,0
19.05.2017 23:00:00 8,0 6,9 6,8 10 5 24 13 W 1023,2 60 0 0,0
19.05.2017 22:00:00 7,9 6,5 7,2 16 8 27 14 W 1022,8 57 0 0,0
19.05.2017 21:00:00 8,2 6,7 7,7 15 8 40 22 WNW 1022,1 60 0 0,6
19.05.2017 20:00:00 10,5 7,0 9,8 14 7 26 14 W 1020,6 60 14 0,0
19.05.2017 19:00:00 11,7 8,0 9,0 17 9 42 23 W 1020,0 56 24 1,0
19.05.2017 18:00:00 13,0 5,4 16,8 23 12 42 23 W 1019,3 30 51 0,0
19.05.2017 17:00:00 12,5 7,6 13,3 21 11 39 21 W 1019,1 19 28 0,0
19.05.2017 16:00:00 14,1 6,2 20,4 21 12 46 25 WSW 1018,6 36 49 0,0
19.05.2017 15:00:00 12,9 6,9 14,9 20 11 33 18 W 1018,8 37 31 0,0
19.05.2017 14:00:00 12,2 7,3 10,8 15 8 37 20 W 1019,1 60 30 0,2
19.05.2017 13:00:00 11,8 5,6 15,0 16 9 27 15 W 1019,3 60 26 0,0
19.05.2017 12:00:00 10,8 5,7 13,0 22 12 34 18 W 1019,8 56 27 0,0
19.05.2017 11:00:00 10,5 6,6 11,3 18 10 33 18 W 1019,6 60 34 0,0
19.05.2017 10:00:00 9,4 7,3 8,2 19 10 31 17 W 1019,7 49 15 0,0
19.05.2017 09:00:00 7,9 6,4 7,5 17 9 29 16 WNW 1019,8 54 5 0,0
19.05.2017 08:00:00 7,4 7,0 7,0 12 7 19 11 W 1019,4 56 0 0,0
19.05.2017 07:00:00 7,1 6,8 6,3 12 6 25 13 WNW 1018,9 34 0 0,0
19.05.2017 06:00:00 6,8 6,2 6,5 16 9 27 15 W 1018,4 49 0 0,0
19.05.2017 05:00:00 7,1 6,7 6,9 21 11 31 17 WNW 1018,3 41 0 0,0
19.05.2017 04:00:00 6,9 6,9 6,7 12 6 20 11 W 1018,3 35 0 0,8
19.05.2017 03:00:00 6,5 6,5 6,6 5 3 6 4 SW 1018,6 2,9 0 1,1
19.05.2017 02:00:00 6,5 6,5 6,2 4 2 11 6 WSW 1019,0 9 0 1,0
19.05.2017 01:00:00 6,5 6,2 6,2 8 4 12 7 WNW 1019,5 12 0 1,4
19.05.2017 00:00:00 6,5 5,8 6,2 7 4 25 14 W 1019,8 20 0 1,4
18.05.2017 23:00:00 6,7 6,3 6,2 16 8 35 19 NW 1019,7 7 0 3,2
18.05.2017 22:00:00 7,4 6,8 7,2 22 12 36 20 WNW 1019,2 4,0 0 6,9
18.05.2017 21:00:00 8,1 7,7 7,9 19 10 32 17 WNW 1018,2 6 0 4,0
18.05.2017 20:00:00 8,7 8,4 8,6 21 11 45 24 W 1017,1 5 0 4,2
18.05.2017 19:00:00 9,0 8,4 8,8 27 15 59 32 WNW 1015,8 9 0 1,3
18.05.2017 18:00:00 9,2 8,4 9,0 44 24 67 36 NW 1015,3 9 0 5,0
18.05.2017 17:00:00 16,0 12,5 15,6 15 8 26 14 SW 1011,0 20 0 0,0
18.05.2017 16:00:00 16,8 12,9 15,8 15 8 27 15 SW 1010,8 34 0 0,2
18.05.2017 15:00:00 18,2 10,8 18,2 15 8 44 24 SSW 1010,8 58 0 0,0
18.05.2017 14:00:00 19,9 10,6 23,0 29 15 56 30 SSE 1010,6 25 42 0,0
18.05.2017 13:00:00 20,9 9,8 24,9 27 14 46 25 SSE 1010,5 30 52 0,0
18.05.2017 12:00:00 19,6 8,6 21,2 24 13 40 22 SSE 1011,0 39 35 0,0
18.05.2017 11:00:00 19,5 9,1 21,8 22 12 35 19 SE 1011,6 42 56 0,0

tt = Température de l'air
td = dewpoint
tt 5cm = Température de l'air 5cm
ff = Vitesse du vent
fx = gusts
dd = Direction du vent
ppp = reduced air pressure
vv = visibility
sd = Ensoleillement
rr = Quantités de précipitations

stations d'obs. à proximité